Flag for Austria Weather past 2 weeks in Hartberg, Styria, Austria

Now
43 °F

Passing clouds.


Feels Like: 39 °F
Forecast: 27 / 47 °F
Wind: 6 mph from Southeast

Location: Graz-Thalerhof-Flughafen

Current Time: Feb 28, 2015 at 7:26:40 PM

Latest Report: Feb 28, 2015 at 6:50 PM


Visibility: N/A

Pressure: 30.07 "Hg

Humidity: 76%

Dew point: 36 °F

Location of HartbergLocation

Historic Weather in Hartberg — Graph

°F

Hartberg temperature yesterday

Maximum temperature yesterday: 48 °F (at 12:50 PM)
Minimum temperature yesterday: 27 °F (at 5:50 AM)
Average temperature yesterday: 38 °F

Past Weeks' High & Low Weather Summary

 TemperatureHumidityPressure
High54 °F (Feb 21, 12:20 PM)100% (Feb 14, 1:20 AM)30.72 "Hg (Feb 14, 1:20 AM)
Low21 °F (Feb 20, 7:20 AM)33% (Feb 21, 12:50 PM)29.59 "Hg (Feb 23, 3:50 PM)
Average38 °F78%30.04 "Hg
* Reported Feb 13 5:20 PM — Feb 28 5:50 PM, Hartberg, Weather by CustomWeather, © 2015

Note: Actual official high and low records may vary slightly from our data, if they occured in-between our weather recording intervals... More about our weather records

Advertising

Hartberg weather history for previous 24 hours

 ConditionsComfort  
Time TempWeatherWind HumidityBarometerVisibility
5:50 PM
Sat, Feb 28
45 °FPassing clouds.7 mph71%30.07 "HgN/A
5:20 PM46 °FPartly sunny.7 mph66%30.07 "HgN/A
4:50 PM48 °FPartly sunny.6 mph58%30.04 "HgN/A
4:20 PM48 °FPartly sunny.6 mph54%30.04 "HgN/A
3:50 PM48 °FPartly sunny.6 mph58%30.04 "HgN/A
3:20 PM48 °FScattered clouds.12 mph58%30.04 "HgN/A
2:50 PM48 °FScattered clouds.8 mph58%30.04 "HgN/A
2:20 PM48 °FScattered clouds.7 mph58%30.04 "HgN/A
1:50 PM48 °FScattered clouds.7 mph58%30.07 "HgN/A
1:20 PM48 °FScattered clouds.8 mph62%30.07 "HgN/A
12:50 PM46 °FScattered clouds.6 mph66%30.07 "HgN/A
12:20 PM48 °FPassing clouds.5 mph58%30.07 "HgN/A
11:50 AM46 °FPassing clouds.7 mph62%30.09 "HgN/A
11:20 AM45 °FPassing clouds.6 mph71%30.09 "HgN/A
10:50 AM45 °FPassing clouds.7 mph66%30.09 "HgN/A
10:20 AM45 °FPassing clouds.2 mph71%30.09 "HgN/A
9:50 AM41 °FPassing clouds.2 mph81%30.09 "HgN/A
9:20 AM37 °FScattered clouds.1 mph87%30.09 "HgN/A
8:50 AM37 °FScattered clouds.2 mph87%30.07 "HgN/A
8:20 AM36 °FPartly sunny.2 mph93%30.07 "HgN/A
7:50 AM36 °FBroken clouds.1 mph93%30.07 "HgN/A
7:20 AM34 °FBroken clouds.2 mph93%30.04 "HgN/A
6:50 AM34 °FPartly sunny.1 mph93%30.04 "HgN/A
6:20 AM34 °FPassing clouds.1 mph93%30.04 "HgN/A
5:50 AM36 °FPassing clouds.1 mph87%30.04 "HgN/A
5:20 AM36 °FPassing clouds.No wind87%30.04 "HgN/A
4:50 AM36 °FPassing clouds.1 mph87%30.01 "HgN/A
4:20 AM36 °FPassing clouds.2 mph87%30.01 "HgN/A
3:50 AM36 °FPassing clouds.1 mph87%30.01 "HgN/A
3:20 AM34 °FPassing clouds.1 mph93%30.01 "Hg6 mi
2:50 AM34 °FPassing clouds.2 mph93%30.01 "HgN/A
2:20 AM34 °FOvercast.1 mph93%30.01 "Hg6 mi
1:50 AM32 °FPassing clouds.1 mph100%30.01 "Hg4 mi
1:20 AM34 °FPassing clouds.1 mph93%29.98 "Hg4 mi
12:50 AM34 °FPassing clouds.1 mph93%29.98 "Hg6 mi
12:20 AM34 °FChilly.2 mph93%29.98 "HgN/A
11:50 PM
Fri, Feb 27
36 °FChilly.1 mph87%29.98 "HgN/A
11:20 PM36 °FPassing clouds.2 mph87%29.98 "HgN/A
10:50 PM37 °FPassing clouds.2 mph81%29.98 "HgN/A
10:20 PM39 °FPassing clouds.2 mph81%29.95 "HgN/A
9:50 PM39 °FPassing clouds.5 mph81%29.95 "HgN/A
9:20 PM41 °FPassing clouds.3 mph76%29.95 "HgN/A
8:50 PM41 °FPassing clouds.3 mph76%29.95 "HgN/A
8:20 PM41 °FOvercast.2 mph76%29.92 "HgN/A
7:50 PM41 °FPassing clouds.6 mph76%29.92 "HgN/A
7:20 PM41 °FPassing clouds.8 mph76%29.92 "HgN/A
Weather by CustomWeather, © 2015

See weather overviewHow to use our weather pages